Location: Newark
(54.3386°S, 169.8415°W)
Time: 16:00:39
(UTC+00:00)

Vanguard 2 Rocket - Visible Passes

Search period start: 14 October 2019 00:00
Search period end: 24 October 2019 00:00
Orbit: 554 x 3326 km, 32.9° (Epoch: 13 October)

Date Brightness Start Highest point End Pass type
(mag) Time Alt. Az. Time Alt. Az. Time Alt. Az.
14 Oct 9.3 13:13:48 11° NNE 13:13:48 11° NNE 13:14:24 10° NNE visible
14 Oct 9.3 15:21:49 10° NNW 15:24:13 11° N 15:26:55 10° N visible
15 Oct 9.2 14:23:37 10° NNW 14:24:50 11° N 14:26:40 10° N visible
